CAPE
0 0 0 0 0 0 0 0 0 1 11 0 0 0 0 28 31 9 17 35 17 12 1 1 0 2 0 0 0 3 4 22 23 35 32 40 44 23 28 1 0 0 0
0 0 0 0 0 0 0 0 0 8 14 8 12 16 24 26 7 12 9 10 15 6 0 0 0 0 0 0 0 0 12 10 21 24 49 34 2 1 17 0 0 0 0
0 0 0 0 0 0 0 0 1 0 23 36 34 30 26 11 22 0 0 0 2 1 1 3 1 0 0 2 6 0 9 9 16 37 25 0 9 0 1 0 0 0 0
0 0 0 0 0 0 0 0 8 4 9 22 13 17 11 3 0 0 0 1 1 0 1 2 1 1 6 3 14 3 6 19 19 23 13 10 4 0 1 0 0 0 0
0 0 0 0 0 0 0 0 0 6 13 21 46 25 17 4 0 0 0 0 0 1 7 9 1 0 0 1 0 1 0 2 16 2 16 8 0 1 0 0 0 0 0
0 0 0 0 0 0 0 0 0 1 29 37 37 37 17 26 0 0 0 3 4 1 7 9 0 0 0 1 1 3 22 9 15 8 0 16 1 0 0 0 0 0 0
0 0 0 0 0 0 0 0 0 0 1 17 7 33 31 4 3 2 1 4 1 1 1 4 4 0 0 1 0 7 12 6 7 2 0 0 0 0 0 0 0 0 0
0 0 0 0 0 0 0 0 0 0 0 1 6 18 6 8 5 1 0 6 5 3 9 3 3 0 6 13 8 6 1 0 0 0 0 0 0 0 0 0 0 0 0
0 0 0 0 0 0 0 0 0 0 0 0 0 0 2 0 0 1 3 7 5 13 21 8 3 2 0 3 2 0 0 0 0 0 0 0 0 0 0 0 0 0 0
0 0 0 0 0 0 0 0 0 0 0 0 0 0 0 0 0 0 0 3 1 1 1 1 0 2 0 0 0 0 0 0 0 0 0 0 0 0 0 0 0 0 0
0 0 0 0 0 0 0 0 0 0 0 0 0 0 0 0 0 0 0 0 0 0 0 0 0 0 0 0 0 0 0 0 0 0 0 0 0 0 0 0 0 0 0
0 0 0 0 0 0 0 0 0 0 0 0 0 0 0 0 0 0 0 0 0 0 0 0 0 0 0 0 0 0 0 0 0 0 0 0 0 0 0 0 0 0 0
0 0 0 0 0 0 0 0 0 0 0 0 0 0 0 0 0 0 0 0 0 0 0 0 0 0 0 0 0 0 0 0 0 0 0 0 0 0 0 0 0 0 0
0 0 0 0 0 0 0 0 0 0 0 0 0 0 0 0 0 0 0 0 0 0 0 0 0 0 0 0 0 0 0 0 0 0 0 0 0 0 0 0 0 0 0
0 0 0 0 0 0 0 0 0 0 0 0 0 0 0 0 0 0 0 0 0 0 0 0 0 0 0 0 0 0 0 0 0 0 0 0 0 0 0 0 0 0 0
0 0 0 0 0 0 0 0 0 0 0 0 0 0 0 0 0 0 0 0 0 0 0 0 0 0 0 0 0 0 0 0 0 0 0 0 0 0 0 0 0 0 0
0 0 0 0 0 0 0 0 0 0 0 0 0 0 0 0 0 0 0 0 0 0 0 0 0 0 0 0 0 0 0 0 0 0 0 0 0 0 0 0 0 0 0
0 0 0 0 0 0 0 0 0 0 0 0 0 0 0 0 0 0 0 0 0 0 0 0 0 0 0 0 0 0 0 0 0 0 0 0 0 0 0 0 0 0 0
0 0 0 0 0 0 0 0 0 0 0 0 0 0 0 0 0 0 0 0 0 0 0 0 0 0 0 0 0 0 0 0 0 0 0 0 0 0 0 0 0 0 0
0 0 0 0 0 0 0 0 0 0 0 0 0 0 0 0 0 0 0 0 0 0 0 0 0 0 0 0 0 0 0 0 0 0 0 0 0 0 0 0 0 0 0
0 0 0 0 0 0 0 0 0 0 0 0 0 0 0 0 0 0 0 0 0 0 0 0 0 0 0 0 0 0 0 0 0 0 0 0 0 0 0 0 0 0 0
0 0 0 0 0 0 0 0 0 0 0 0 0 0 0 0 0 0 0 0 0 0 0 0 0 0 0 0 0 0 0 0 0 0 0 0 0 0 0 0 0 0 0
0 0 0 0 0 0 0 0 0 0 0 0 0 0 0 0 0 0 0 0 0 0 0 0 0 0 0 0 0 0 0 0 0 0 0 0 0 0 0 0 0 0 0
0 0 0 0 0 0 0 0 0 0 0 0 0 0 0 0 0 0 0 0 0 0 0 0 0 0 0 0 0 0 0 0 0 0 0 0 0 0 0 0 0 0 0
0 0 0 0 0 0 0 0 0 0 0 0 0 0 0 0 0 0 0 0 0 0 0 0 0 0 0 0 0 0 0 0 0 0 0 0 0 0 0 0 0 0 0
3 0 0 0 0 0 0 0 0 0 0 0 0 0 0 0 0 0 0 0 0 0 0 0 0 0 0 0 0 0 0 0 0 0 0 0 0 0 0 0 0 0 0
CIN
-0 -0 -0 -0 -0 -0 -0 -0 -0 -32 -69 -0 -0 -0 -0 -70 -75 -80 -81 -71 -63 -52 -0 -0 -0 -44 -0 -0 -9 -33 -26 -26 -29 -1 -0 -1 -0 -0 -6 -33 -34 -0 -0
-0 -0 -0 -0 -0 -0 -0 -0 -0 -65 -81 -76 -44 -63 -75 -64 -88 -79 -81 -84 -87 -73 -0 -0 -1 -0 -0 -0 -0 -2 -18 -20 -33 -2 -0 -0 -4 -4 -43 -2 -0 -0 -0
-0 -0 -0 -0 -0 -0 -0 -0 -10 -0 -57 -64 -67 -66 -66 -70 -77 -0 -0 -0 -0 -1 -0 -0 -1 -6 -0 -30 -19 -0 -22 -11 -6 -12 -0 -10 -16 -26 -24 -0 -0 -0 -0
-0 -0 -0 -0 -0 -0 -0 -0 -50 -14 -60 -61 -62 -64 -73 -39 -0 -0 -0 -0 -0 -1 -1 -2 -1 -0 -44 -27 -23 -31 -25 -10 -6 -2 -3 -30 -36 -0 -30 -0 -0 -0 -0
-0 -0 -0 -0 -0 -0 -0 -0 -0 -66 -67 -67 -58 -58 -68 -57 -0 -0 -0 -0 -0 -1 -69 -43 -0 -0 -0 -34 -22 -32 -9 -16 -20 -6 -39 -46 -22 -51 -14 -0 -0 -0 -0
-0 -0 -0 -0 -0 -0 -0 -0 -0 -48 -56 -46 -54 -55 -63 -47 -1 -0 -12 -87 -73 -89 -67 -55 -2 -0 -0 -18 -53 -42 -36 -51 -70 -76 -78 -47 -20 -0 -0 -0 -0 -0 -0
-0 -0 -0 -0 -0 -0 -0 -0 -0 -0 -54 -76 -51 -71 -54 -45 -51 -65 -79 -60 -25 -0 -3 -8 -14 -5 -0 -14 -52 -52 -54 -51 -81 -74 -0 -0 -0 -0 -0 -0 -0 -0 -0
-0 -0 -0 -0 -0 -0 -0 -0 -0 -0 -0 -65 -108 -107 -44 -41 -42 -10 -0 -12 -28 -24 -18 -0 -17 -7 -30 -52 -63 -66 -38 -0 -0 -0 -0 -0 -0 -0 -0 -0 -0 -0 -0
-0 -0 -0 -0 -0 -0 -0 -0 -0 -0 -0 -0 -0 -22 -116 -0 -0 -66 -42 -47 -29 -33 -12 -22 -57 -58 -12 -72 -69 -0 -0 -0 -0 -0 -0 -0 -0 -0 -0 -0 -0 -0 -0
-0 -0 -0 -0 -0 -0 -0 -0 -0 -0 -0 -0 -0 -0 -0 -0 -0 -0 -10 -92 -45 -60 -25 -46 -0 -68 -0 -0 -0 -0 -0 -0 -0 -0 -0 -0 -0 -0 -0 -0 -0 -0 -0
-0 -0 -0 -0 -0 -0 -0 -0 -0 -0 -0 -0 -0 -0 -0 -0 -0 -0 -0 -0 -0 -0 -0 -0 -0 -0 -0 -0 -0 -0 -0 -0 -0 -0 -0 -0 -0 -0 -0 -0 -0 -0 -0
-0 -0 -0 -0 -0 -0 -0 -0 -0 -0 -0 -0 -0 -0 -0 -0 -0 -0 -0 -0 -0 -0 -0 -0 -0 -0 -0 -0 -0 -0 -0 -0 -0 -0 -0 -0 -0 -0 -0 -0 -0 -0 -0
-0 -0 -0 -0 -0 -0 -0 -0 -0 -0 -0 -0 -0 -0 -0 -0 -0 -0 -0 -0 -0 -0 -0 -0 -0 -0 -0 -0 -0 -0 -0 -0 -0 -0 -0 -0 -0 -0 -0 -0 -0 -0 -0
-0 -0 -0 -0 -0 -0 -0 -0 -0 -0 -0 -0 -0 -0 -0 -0 -0 -0 -0 -0 -0 -0 -0 -0 -0 -0 -0 -0 -0 -0 -0 -0 -0 -0 -0 -0 -0 -0 -0 -0 -0 -0 -0
-0 -0 -0 -0 -0 -0 -0 -0 -0 -0 -0 -0 -0 -0 -0 -0 -0 -0 -0 -0 -0 -0 -0 -0 -0 -0 -0 -0 -0 -0 -0 -0 -0 -0 -0 -0 -0 -0 -0 -0 -0 -0 -0
-0 -0 -0 -0 -0 -0 -0 -0 -0 -0 -0 -0 -0 -0 -0 -0 -0 -0 -0 -0 -0 -0 -0 -0 -0 -0 -0 -0 -0 -0 -0 -0 -0 -0 -0 -0 -0 -0 -0 -0 -0 -0 -0
-0 -0 -0 -0 -0 -0 -0 -0 -0 -0 -0 -0 -0 -0 -0 -0 -0 -0 -0 -0 -0 -0 -0 -0 -0 -0 -0 -0 -0 -0 -0 -0 -0 -0 -0 -0 -0 -0 -0 -0 -0 -0 -0
-0 -0 -0 -0 -0 -0 -0 -0 -0 -0 -0 -0 -0 -0 -0 -0 -0 -0 -0 -0 -0 -0 -0 -0 -0 -0 -0 -0 -0 -0 -0 -0 -0 -0 -0 -0 -0 -0 -0 -0 -0 -0 -0
-0 -0 -0 -0 -0 -0 -0 -0 -0 -0 -0 -0 -0 -0 -0 -0 -0 -0 -0 -0 -0 -0 -0 -0 -0 -0 -0 -0 -0 -0 -0 -0 -0 -0 -0 -0 -0 -0 -0 -0 -0 -0 -0
-0 -0 -0 -0 -0 -0 -0 -0 -0 -0 -0 -0 -0 -0 -0 -0 -0 -0 -0 -0 -0 -0 -0 -0 -0 -0 -0 -0 -0 -0 -0 -0 -0 -0 -0 -0 -0 -0 -0 -0 -0 -0 -0
-0 -0 -0 -0 -0 -0 -0 -0 -0 -0 -0 -0 -0 -0 -0 -0 -0 -0 -0 -0 -0 -0 -0 -0 -0 -0 -0 -0 -0 -0 -0 -0 -0 -0 -0 -0 -0 -0 -0 -0 -0 -0 -0
-0 -0 -0 -0 -0 -0 -0 -0 -0 -0 -0 -0 -0 -0 -0 -0 -0 -0 -0 -0 -0 -0 -0 -0 -0 -0 -0 -0 -0 -0 -0 -0 -0 -0 -0 -0 -0 -0 -0 -0 -0 -0 -0
-0 -0 -0 -0 -0 -0 -0 -0 -0 -0 -0 -0 -0 -0 -0 -0 -0 -0 -0 -0 -0 -0 -0 -0 -0 -0 -0 -0 -0 -0 -0 -0 -0 -0 -0 -0 -0 -0 -0 -0 -0 -0 -0
-0 -0 -0 -0 -0 -0 -0 -0 -0 -0 -0 -0 -0 -0 -0 -0 -0 -0 -0 -0 -0 -0 -0 -0 -0 -0 -0 -0 -0 -0 -0 -0 -0 -0 -0 -0 -0 -0 -0 -0 -0 -0 -0
-0 -0 -0 -0 -0 -0 -0 -0 -0 -0 -0 -0 -0 -0 -0 -0 -0 -0 -0 -0 -0 -0 -0 -0 -0 -0 -0 -0 -0 -0 -0 -0 -0 -0 -0 -0 -0 -0 -0 -0 -0 -0 -0
-437 -0 -0 -0 -0 -0 -0 -0 -0 -0 -0 -0 -0 -0 -0 -0 -0 -0 -0 -0 -0 -0 -0 -0 -0 -0 -0 -0 -0 -0 -0 -0 -0 -0 -0 -0 -0 -0 -0 -0 -0 -0 -0
Wind_Speed
14 15 16 17 20 20 19 18 19 20 21 24 25 25 21 18 14 14 13 15 11 13 11 5 2 14 17 11 21 12 12 12 14 15 16 17 15 16 15 18 18 13 14
15 16 17 18 19 19 19 19 20 19 19 25 25 25 23 17 16 9 10 14 7 9 9 6 1 1 0 1 23 11 12 11 4 11 18 19 13 12 11 8 12 15 17
17 18 19 18 19 20 21 20 21 19 21 24 26 27 16 4 4 9 8 6 6 10 9 7 3 4 3 3 4 10 7 1 1 11 13 12 10 12 13 12 13 14 17
17 17 18 19 20 22 22 23 22 21 20 24 25 27 28 23 4 2 6 10 9 9 7 6 2 2 7 3 7 1 3 4 6 9 7 7 10 13 12 10 8 14 15
19 19 19 20 21 22 23 24 22 14 23 27 28 25 25 22 21 10 2 3 7 7 6 5 3 3 3 9 12 10 11 5 9 5 9 14 14 9 6 8 7 12 12
19 20 21 22 24 25 25 25 20 21 24 27 24 26 24 21 3 3 6 6 7 10 10 6 3 4 7 8 8 6 12 8 12 18 14 14 10 7 6 8 6 9 11
20 21 23 24 25 26 26 26 25 16 26 27 24 24 22 15 10 15 4 11 7 6 10 6 6 5 4 4 7 6 7 19 16 12 7 7 7 11 3 5 7 10 12
22 24 25 25 25 26 27 27 25 24 25 27 27 26 27 27 30 28 27 23 19 19 17 13 8 7 11 8 5 10 14 19 19 19 22 26 11 3 5 8 10 11 13
23 24 25 26 25 25 26 26 25 27 26 28 27 29 31 32 31 32 29 31 32 33 29 30 30 30 27 24 19 16 14 13 16 17 7 5 8 7 9 11 12 12 15
23 24 25 26 26 25 26 26 26 27 28 29 29 29 29 30 30 30 29 29 31 31 27 27 30 32 33 30 27 24 7 10 2 3 5 7 10 13 14 12 12 14 16
23 24 25 26 26 26 26 27 27 27 28 28 28 28 28 29 29 29 30 31 33 33 30 30 31 31 30 30 30 30 22 20 15 14 12 12 12 13 14 15 16 17 18
21 22 24 25 26 25 25 26 26 25 25 26 27 27 26 27 28 29 29 29 30 30 31 30 29 29 29 28 27 27 21 16 14 13 12 11 11 12 14 16 18 19 21
20 21 23 25 25 24 23 24 26 26 26 27 27 27 27 27 26 27 28 27 27 27 28 27 24 24 22 23 22 19 16 13 10 9 8 8 9 10 12 15 17 19 22
25 23 22 22 24 26 26 25 27 28 28 28 27 27 28 27 27 26 26 26 26 25 22 21 20 18 16 15 13 12 11 9 8 7 7 8 9 10 11 12 14 17 20
25 24 24 23 23 24 27 27 27 28 27 27 27 27 27 26 26 24 23 22 21 19 15 14 14 13 13 11 9 7 6 6 6 5 5 6 7 8 10 11 12 16 18
21 21 23 23 22 20 20 21 23 29 26 27 27 25 24 23 21 21 21 19 14 14 9 12 14 14 13 12 9 5 3 3 3 3 3 4 5 6 8 10 12 14 16
18 17 17 19 18 16 14 17 21 16 23 27 24 22 21 19 17 16 17 16 14 10 10 13 14 14 14 11 6 3 3 2 1 0 2 3 4 5 7 9 11 12 14
14 14 13 15 14 14 13 12 11 14 18 14 7 11 12 10 12 12 11 6 6 12 11 12 14 15 12 10 7 5 3 3 3 2 2 2 3 4 6 7 8 7 12
14 13 12 11 11 11 10 11 10 7 6 5 6 7 5 5 4 7 11 9 9 11 13 13 14 14 12 10 8 7 6 6 5 5 4 3 3 4 5 5 8 8 11
16 16 13 11 10 10 10 10 10 9 8 7 9 10 5 6 8 8 9 12 12 12 13 15 12 11 11 11 11 8 7 7 7 7 6 5 5 5 3 4 6 8 10
14 13 13 12 12 12 11 10 10 9 9 9 9 8 10 11 14 16 14 12 13 12 11 12 13 13 12 11 10 10 10 9 9 9 9 8 6 5 5 5 8 6 8
12 11 12 13 12 13 13 12 12 11 10 10 9 7 9 11 11 12 15 14 12 13 13 13 13 14 15 15 14 13 14 12 12 13 13 11 8 6 5 4 5 5 6
12 11 11 10 10 11 14 14 13 13 13 12 12 11 12 11 12 13 13 13 14 13 14 15 16 17 17 18 17 15 15 13 13 11 11 11 10 8 6 7 6 5 5
14 14 12 10 9 9 11 13 14 14 13 12 12 11 11 12 13 14 14 15 16 15 16 17 17 18 16 15 15 16 15 12 10 10 8 7 7 6 5 4 4 4 5
14 14 13 12 11 9 10 12 13 13 14 13 13 13 14 14 14 15 15 15 15 15 15 16 17 17 16 16 15 13 11 10 7 6 6 6 6 3 3 2 1 3 5
14 13 13 13 13 11 11 11 12 13 14 14 14 14 14 14 15 17 17 18 18 18 17 17 16 15 14 13 12 9 8 6 5 5 7 6 5 4 5 3 1 2 4
Wind_Direction
81 74 68 69 64 75 90 101 103 136 174 157 165 174 195 206 225 223 224 218 223 216 224 236 86 93 104 86 202 223 223 236 214 220 218 208 204 207 215 222 227 253 266
100 93 83 79 79 84 102 107 131 152 177 156 164 173 186 207 207 235 224 213 242 231 230 232 213 255 35 100 114 222 214 217 184 209 208 216 197 209 227 243 253 260 267
97 88 91 86 87 83 103 131 130 152 160 159 153 137 93 262 245 227 226 240 242 228 229 231 230 90 86 187 88 217 222 235 244 206 205 208 212 212 222 243 262 276 256
104 91 91 88 93 88 125 123 134 144 162 154 155 143 139 172 253 295 231 219 220 229 240 243 256 196 96 113 95 105 54 73 192 205 206 205 206 211 237 263 290 262 263
112 105 96 88 98 115 125 130 144 175 147 109 113 156 163 181 190 215 257 253 251 251 251 253 244 93 124 95 90 80 83 98 188 161 187 204 217 231 261 270 281 266 288
117 114 107 95 106 123 131 137 156 145 139 141 164 135 132 195 329 319 264 276 271 254 246 247 211 127 97 97 77 90 84 94 188 190 212 221 233 244 260 257 293 298 315
123 121 118 116 116 119 111 123 128 170 126 123 153 110 114 90 79 90 299 259 279 266 235 223 195 175 113 117 104 194 206 198 210 226 235 236 234 228 278 306 337 354 7
132 133 133 132 126 123 121 125 134 135 125 114 118 114 110 149 138 136 163 175 187 189 204 198 184 158 105 170 151 211 211 203 205 201 186 174 223 24 343 355 12 26 36
137 138 139 139 126 128 132 130 135 129 129 128 140 117 102 122 129 134 152 148 142 139 150 171 167 171 180 185 198 212 215 210 209 211 245 284 288 22 52 50 48 41 19
142 141 141 140 135 133 134 135 141 136 129 127 134 136 136 131 138 142 151 153 151 157 173 179 174 168 164 169 178 188 210 213 227 40 47 31 30 44 70 48 60 29 14
145 142 143 143 142 141 138 140 137 131 130 134 137 141 138 141 145 142 139 139 139 149 168 169 166 167 168 169 166 146 113 105 88 81 71 54 41 35 28 24 18 12 2
142 142 145 144 144 141 138 141 136 127 127 133 134 149 157 150 145 149 146 147 143 141 148 158 159 157 154 148 145 146 122 107 98 84 75 63 53 34 16 11 12 12 12
146 147 147 148 149 143 138 139 143 142 138 141 146 150 150 154 155 153 150 147 143 145 146 141 132 133 128 133 135 129 118 105 94 82 70 52 28 32 29 23 24 23 17
156 154 151 149 151 155 155 151 155 158 159 156 154 155 158 157 155 154 153 151 148 142 126 125 124 118 117 114 108 111 109 107 101 86 69 49 43 25 22 21 20 17 13
159 158 158 158 155 155 162 161 162 169 163 160 164 163 159 163 166 157 148 144 144 134 116 115 121 121 121 117 109 104 105 102 100 72 62 40 23 14 8 11 12 3 6
157 158 160 161 161 157 155 155 240 192 168 173 172 167 168 166 158 158 160 154 136 131 116 133 142 143 143 140 135 123 105 113 98 78 41 18 8 4 3 6 6 7 9
166 162 158 160 162 162 160 159 163 207 246 179 174 170 168 165 161 159 160 157 153 145 154 157 160 160 162 162 168 186 180 173 144 13 341 347 354 358 2 2 4 11 12
179 176 172 166 167 168 172 171 168 163 169 167 168 167 170 168 170 167 159 149 164 170 170 172 173 174 175 183 193 204 229 230 229 253 287 318 335 349 354 358 9 8 9
184 187 189 191 186 183 185 181 185 200 204 228 273 277 266 256 208 178 173 185 190 192 190 187 184 185 189 201 214 223 217 219 237 242 257 276 304 323 334 355 3 6 13
189 187 196 214 217 211 222 207 203 202 206 204 196 195 229 244 202 201 195 194 194 200 199 199 206 211 208 204 207 220 234 228 220 240 257 269 286 301 315 340 351 355 9
198 199 201 216 208 205 221 227 219 222 206 204 205 222 203 203 198 196 199 204 208 214 224 225 227 231 239 234 244 248 244 241 240 246 253 262 272 287 324 333 341 354 358
216 212 202 204 221 219 218 234 242 238 238 240 254 248 215 219 240 223 214 221 241 254 254 254 249 247 246 242 245 257 266 260 260 264 259 256 251 243 254 300 324 335 2
228 222 219 233 232 231 232 236 230 224 236 247 256 264 264 251 248 246 244 247 260 259 261 259 261 266 266 263 260 252 253 260 265 251 242 244 250 245 260 307 299 326 7
237 238 229 230 237 230 220 220 228 228 232 236 240 248 253 261 258 256 263 270 273 270 270 270 268 269 273 259 264 264 262 251 264 258 252 247 241 265 287 278 290 327 17
241 240 235 231 230 224 220 216 219 228 230 236 236 248 262 269 270 271 274 277 278 274 273 274 277 273 271 272 269 270 261 253 263 260 257 251 258 255 228 250 265 354 8
248 242 232 231 230 237 238 237 237 243 242 240 248 259 268 271 274 279 284 286 286 287 286 284 280 275 273 273 268 256 249 242 240 256 265 263 246 201 207 224 225 2 16